Weather in Mazunino

Russia / Udmurt Republic     56°18′51″N   53°59′41″E
temp.,
°C
wind,
m/s
gust,
m/s
humid.,
%
clouds,
%
prec.,
mm/h
press.,
hPa
HPBL,
m
15 april, thu
thu1501:00+9s227873 0.0 102523
04:00+8s228671 0.0 102528
07:00+8s26847 0.0 1024122
10:00+14s35594 0.0 1023383
13:00+18ssw46490 0.0 1021888
16:00+19sw46453 0.0 10201445
19:00+15ssw22581 0.0 101915
22:00+12wnw12674 0.0 101910
16 april, fri
fri1601:00+10n33732 0.0 102044
04:00+6ne5109231 0.0 1022307
07:00+6ne612835 0.0 1023470
10:00+10ne686918 0.0 1024694
13:00+12ne666664 0.0 1024908
16:00+10ne676952 0.0 1024789
19:00+8ne49745 0.0 1024547
22:00+5ne39830 0.0 1025263
17 april, sat
sat1701:00+3nne39900 0.0 1025194
04:00+2nne39810 0.0 1026188
07:00+3nne39700 0.0 1026274
10:00+8ne57425 0.0 1026806
13:00+10nne56365 0.0 10251294
16:00+11nne45355 0.0 10241544
19:00+8n34534 0.0 102486
22:00+5nnw22635 0.0 102419
18 april, sun
sun1801:00+4nnw22730 0.0 102333
04:00+2nnw22765 0.0 102328
07:00+3nw28741 0.0 1022266
10:00+8n685727 0.0 10221277
13:00+4nne6105771 0.0 10241133
16:00+6nne893273 0.0 10262213
19:00+3nne610371 0.0 1028993
22:00+1ne510565 0.0 1031483
19 april, mon
mon1901:00−1ne38665 0.0 1033300
04:00−2ne37664 0.0 1035295
07:00−1ene35472 0.0 1037567
10:00+2ne35325 0.0 10381739
13:00+4nne34295 0.0 10371942
16:00+5n44282 0.0 10371927
19:00+3n23410 0.0 103751
22:00+1nne11450 0.0 103810